CW5367 Weather Reports


time (UTC)temp
C
wind
direction
speed
KPH
gust
KPH
rain 1hr
cm
rain 24hr
cm
rain mn
cm
humidity
%
barometer
mb
20260504184555 21 161 0.0 12.9 0.00 0.00 0.00 40 1010.4
20260504184052 21 0 0.0 12.9 0.00 0.00 0.00 40 1010.5
20260504183552 21 0 0.0 12.9 0.00 0.00 0.00 42 1010.6
20260504183102 21 0 0.0 16.1 0.00 0.00 0.00 43 1010.6
20260504182551 21 0 0.0 16.1 0.00 0.00 0.00 43 1010.6
20260504182051 21 263 1.6 14.5 0.00 0.00 0.00 39 1010.7
20260504181558 21 0 0.0 14.5 0.00 0.00 0.00 43 1010.7
20260504181048 21 157 0.0 19.3 0.00 0.00 0.00 41 1010.8
20260504180549 21 0 1.6 19.3 0.00 0.00 0.00 41 1011.0
20260504180136 21 196 0.0 19.3 0.00 0.00 0.00 42 1010.9
20260504175548 21 0 1.6 14.5 0.00 0.00 0.00 42 1011.0
20260504175048 20 0 0.0 12.9 0.00 0.00 0.00 41 1010.9
20260504174552 20 0 0.0 16.1 0.00 0.00 0.00 45 1011.1
20260504174048 20 217 3.2 16.1 0.00 0.00 0.00 42 1011.0
20260504173551 21 0 0.0 12.9 0.00 0.00 0.00 40 1011.1
20260504173056 20 0 0.0 9.7 0.00 0.00 0.00 42 1011.1
20260504172551 21 188 0.0 6.4 0.00 0.00 0.00 43 1011.3
20260504172051 20 0 0.0 6.4 0.00 0.00 0.00 41 1011.4
20260504171553 20 0 0.0 6.4 0.00 0.00 0.00 46 1011.5
20260504171052 20 186 0.0 11.3 0.00 0.00 0.00 41 1011.6
20260504170552 20 0 0.0 11.3 0.00 0.00 0.00 40 1011.7
20260504151052 18 0 0.0 16.1 0.00 0.00 0.00 44 1013.0
20260504150553 18 0 0.0 16.1 0.00 0.00 0.00 46 1013.1
20260504141049 16 0 0.0 3.2 0.00 0.00 0.00 51 1013.3
20260504140549 17 0 0.0 3.2 0.00 0.00 0.00 51 1013.2
20260504130551 13 176 0.0 6.4 0.00 0.00 0.00 58 1013.8
20260504120108 10 0 0.0 0.0 0.00 0.00 0.00 62 1014.0
20260504110552 7 0 0.0 0.0 0.00 0.00 0.00 67 1014.0
20260504100552 6 0 0.0 0.0 0.00 0.00 0.00 69 1013.8
20260504100116 5 0 0.0 0.0 0.00 0.00 0.00 70 1013.8
20260504081608 6 0 0.0 0.0 0.00 0.00 0.00 69 1013.5
20260504081053 6 0 0.0 0.0 0.00 0.00 0.00 68 1013.6
20260504080553 6 0 0.0 0.0 0.00 0.00 0.00 69 1013.5
20260504050551 7 0 0.0 0.0 0.00 0.00 0.00 63 1013.2
20260504045552 7 0 0.0 0.0 0.00 0.00 0.00 64 1013.2
20260504045051 7 0 0.0 0.0 0.00 0.00 0.00 64 1013.2
20260504044554 7 0 0.0 0.0 0.00 0.00 0.00 64 1013.2
20260504044052 7 0 0.0 0.0 0.00 0.00 0.00 65 1013.2
20260504043553 7 0 0.0 0.0 0.00 0.00 0.00 64 1013.2
20260504043102 7 0 0.0 0.0 0.00 0.00 0.00 64 1013.2
20260504042552 7 0 0.0 0.0 0.00 0.00 0.00 63 1013.2
20260504042056 7 0 0.0 0.0 0.00 0.00 0.00 65 1013.1
20260504041557 7 0 0.0 0.0 0.00 0.00 0.00 63 1013.1
20260504041052 7 0 0.0 0.0 0.00 0.00 0.00 64 1013.0
20260504040552 7 0 0.0 0.0 0.00 0.00 0.00 64 1012.9
20260504040104 7 0 0.0 0.0 0.00 0.00 0.00 65 1013.0
20260504035552 7 0 0.0 0.0 0.00 0.00 0.00 64 1012.9
20260504035056 7 0 0.0 0.0 0.00 0.00 0.00 62 1012.8
20260504034610 7 0 0.0 0.0 0.00 0.00 0.00 63 1012.7
20260504034051 7 0 0.0 0.0 0.00 0.00 0.00 64 1012.7
20260504033552 7 0 0.0 0.0 0.00 0.00 0.00 63 1012.6
20260504033101 7 0 0.0 0.0 0.00 0.00 0.00 62 1012.7
20260504032552 7 0 0.0 0.0 0.00 0.00 0.00 62 1012.7
20260504032055 7 0 0.0 0.0 0.00 0.00 0.00 63 1012.8
20260504031602 7 0 0.0 0.0 0.00 0.00 0.00 61 1012.7
20260504031055 7 0 0.0 0.0 0.00 0.00 0.00 61 1012.7
20260504030548 7 0 0.0 0.0 0.00 0.00 0.00 63 1012.7
20260504030055 7 0 0.0 0.0 0.00 0.00 0.00 62 1012.7
20260504025552 7 0 0.0 0.0 0.00 0.00 0.00 60 1012.7
20260504025052 7 0 0.0 0.0 0.00 0.00 0.00 61 1012.8
20260504024558 7 0 0.0 0.0 0.00 0.00 0.00 61 1012.6
20260504024054 8 0 0.0 0.0 0.00 0.00 0.00 59 1012.7
20260504023552 8 0 0.0 0.0 0.00 0.00 0.00 58 1012.6
20260504023058 8 0 0.0 0.0 0.00 0.00 0.00 58 1012.5
20260504022549 8 0 0.0 0.0 0.00 0.00 0.00 59 1012.7
20260504022055 8 0 0.0 0.0 0.00 0.00 0.00 58 1012.6
20260504021602 8 0 0.0 0.0 0.00 0.00 0.00 57 1012.7
20260504021049 8 0 0.0 0.0 0.00 0.00 0.00 57 1012.7
20260504020548 8 0 0.0 0.0 0.00 0.00 0.00 58 1012.7
20260504020114 8 0 0.0 0.0 0.00 0.00 0.00 55 1012.6
20260504015552 8 0 0.0 0.0 0.00 0.00 0.00 55 1012.6
20260504015048 8 0 0.0 0.0 0.00 0.00 0.00 56 1012.6
20260504014605 9 0 0.0 0.0 0.00 0.00 0.00 58 1012.6
20260504014052 9 0 0.0 0.0 0.00 0.00 0.00 54 1012.6
20260504013552 9 0 0.0 0.0 0.00 0.00 0.00 53 1012.6
20260504013106 9 0 0.0 0.0 0.00 0.00 0.00 53 1012.5
20260504012554 9 0 0.0 0.0 0.00 0.00 0.00 54 1012.4
20260504012052 9 0 0.0 0.0 0.00 0.00 0.00 54 1012.4
20260504011554 9 0 0.0 0.0 0.00 0.00 0.00 54 1012.3
20260504011055 9 0 0.0 0.0 0.00 0.00 0.00 54 1012.3
20260504010551 9 0 0.0 0.0 0.00 0.00 0.00 54 1012.2
20260504010051 9 0 0.0 0.0 0.00 0.00 0.00 57 1012.2
20260504005552 9 0 0.0 0.0 0.00 0.00 0.00 56 1012.2
20260504005049 9 0 0.0 0.0 0.00 0.00 0.00 55 1012.1
20260504004554 9 0 0.0 0.0 0.00 0.00 0.00 55 1012.1
20260504004049 10 0 0.0 0.0 0.00 0.00 0.00 54 1012.0
20260504003549 10 0 0.0 0.0 0.00 0.00 0.00 55 1011.9
20260504003057 10 0 0.0 0.0 0.00 0.00 0.00 53 1011.8
20260504002553 10 0 0.0 0.0 0.00 0.00 0.00 54 1011.8
20260504002052 10 0 0.0 0.0 0.00 0.00 0.00 53 1011.7
20260504001602 10 0 0.0 0.0 0.00 0.00 0.00 51 1011.6
20260504001052 11 0 0.0 0.0 0.00 0.00 0.00 50 1011.6
20260504000552 11 0 0.0 0.0 0.00 0.00 0.00 49 1011.5
20260503235552 11 0 0.0 0.0 0.00 0.00 0.00 48 1011.4
20260503235052 11 0 0.0 0.0 0.00 0.00 0.00 46 1011.4
20260503234552 12 0 0.0 0.0 0.00 0.00 0.00 47 1011.4
20260503234052 12 0 0.0 0.0 0.00 0.00 0.00 48 1011.4
20260503233552 12 0 0.0 0.0 0.00 0.00 0.00 43 1011.4
20260503233053 12 0 0.0 0.0 0.00 0.00 0.00 43 1011.4
20260503232553 12 0 0.0 0.0 0.00 0.00 0.00 41 1011.4
20260503232049 13 0 0.0 0.0 0.00 0.00 0.00 43 1011.3
20260503231607 13 0 0.0 1.6 0.00 0.00 0.00 43 1011.3
20260503231052 13 0 0.0 1.6 0.00 0.00 0.00 41 1011.3
20260503230551 13 0 0.0 0.0 0.00 0.00 0.00 38 1011.3
20260503230105 13 0 0.0 1.6 0.00 0.00 0.00 39 1011.2
20260503225556 13 0 0.0 8.0 0.00 0.00 0.00 40 1011.1
20260503225051 13 0 0.0 8.0 0.00 0.00 0.00 39 1011.2
20260503224603 13 0 0.0 8.0 0.00 0.00 0.00 41 1011.0
20260503224052 14 0 0.0 3.2 0.00 0.00 0.00 40 1011.0
20260503223552 14 0 0.0 11.3 0.00 0.00 0.00 38 1011.0
20260503223051 14 0 0.0 11.3 0.00 0.00 0.00 37 1011.0
20260503222552 14 0 0.0 8.0 0.00 0.00 0.00 38 1011.0
20260503222052 14 0 0.0 12.9 0.00 0.00 0.00 40 1011.0
20260503221556 14 0 0.0 12.9 0.00 0.00 0.00 38 1010.9
20260503221054 14 0 0.0 8.0 0.00 0.00 0.00 37 1010.9
20260503220552 15 0 0.0 8.0 0.00 0.00 0.00 39 1011.0
20260503220055 15 0 0.0 8.0 0.00 0.00 0.00 35 1010.8
20260503215552 15 0 0.0 6.4 0.00 0.00 0.00 36 1010.7
20260503215052 15 0 0.0 6.4 0.00 0.00 0.00 37 1010.8
20260503214558 15 0 0.0 8.0 0.00 0.00 0.00 38 1010.9
20260503214048 15 0 0.0 8.0 0.00 0.00 0.00 34 1010.9
20260503213553 15 0 0.0 4.8 0.00 0.00 0.00 36 1010.8
20260503213103 15 0 0.0 3.2 0.00 0.00 0.00 36 1010.8
20260503212553 15 0 0.0 1.6 0.00 0.00 0.00 36 1010.8
20260503212052 15 0 0.0 9.7 0.00 0.00 0.00 38 1010.8
20260503211614 15 0 0.0 14.5 0.00 0.00 0.00 33 1010.8
20260503211052 15 220 0.0 14.5 0.00 0.00 0.00 36 1011.0
20260503210552 15 0 0.0 6.4 0.00 0.00 0.00 34 1010.9
20260503210056 15 184 0.0 4.8 0.00 0.00 0.00 35 1010.9
20260503205552 15 0 0.0 4.8 0.00 0.00 0.00 36 1010.7
20260503205052 15 0 0.0 4.8 0.00 0.00 0.00 37 1010.7
20260503204558 15 0 0.0 14.5 0.00 0.00 0.00 37 1010.8
20260503204052 15 0 0.0 14.5 0.00 0.00 0.00 37 1010.9
20260503203552 15 0 0.0 14.5 0.00 0.00 0.00 36 1011.0
20260503203059 15 0 0.0 6.4 0.00 0.00 0.00 35 1010.9
20260503202552 15 0 0.0 6.4 0.00 0.00 0.00 37 1011.0
20260503202054 15 0 0.0 6.4 0.00 0.00 0.00 38 1011.1
20260503201556 15 0 0.0 9.7 0.00 0.00 0.00 38 1011.1
20260503201052 14 0 0.0 9.7 0.00 0.00 0.00 38 1011.0
20260503200548 13 0 0.0 9.7 0.00 0.00 0.00 38 1011.1
20260503200106 14 0 0.0 14.5 0.00 0.00 0.00 39 1011.3
20260503195548 15 0 0.0 14.5 0.00 0.00 0.00 39 1011.2
20260503195052 15 0 1.6 14.5 0.00 0.00 0.00 37 1011.2
20260503194604 15 0 0.0 11.3 0.00 0.00 0.00 34 1011.3
20260503194053 15 42 0.0 11.3 0.00 0.00 0.00 40 1011.3
20260503193552 15 0 0.0 11.3 0.00 0.00 0.00 34 1011.2
20260503193104 14 0 0.0 11.3 0.00 0.00 0.00 36 1011.2
20260503192552 14 71 0.0 1.6 0.00 0.00 0.00 39 1011.4
20260503192052 14 0 0.0 11.3 0.00 0.00 0.00 38 1011.4
20260503191606 14 0 0.0 11.3 0.00 0.00 0.00 38 1011.5
20260503191052 15 0 0.0 11.3 0.00 0.00 0.00 37 1011.6
20260503190552 14 0 0.0 11.3 0.00 0.00 0.00 39 1011.5
20260503190051 14 55 0.0 9.7 0.00 0.00 0.00 41 1011.4
20260503185551 14 0 0.0 9.7 0.00 0.00 0.00 42 1011.4
20260503185052 13 0 0.0 4.8 0.00 0.00 0.00 39 1011.5